EW4573 Weather Reports


time (UTC)temp
C
wind
direction
speed
KPH
gust
KPH
rain 1hr
cm
rain 24hr
cm
rain mn
cm
humidity
%
barometer
mb
20260510161803 26 73 0.0 8.0 0.00 0.00 0.00 44 1015.0
20260510160903 26 264 0.0 4.8 0.00 0.00 0.00 49 1015.0
20260510160003 26 296 0.0 3.2 0.00 0.00 0.00 50 1015.1
20260510155403 25 50 0.0 6.4 0.00 0.00 0.00 53 1015.1
20260510154503 25 39 1.6 6.4 0.00 0.00 0.00 53 1015.3
20260510153603 25 63 1.6 6.4 0.00 0.00 0.00 54 1015.4
20260510152703 25 45 1.6 8.0 0.00 0.00 0.00 55 1015.5
20260510151803 24 63 1.6 8.0 0.00 0.00 0.00 59 1015.4
20260510150903 24 33 0.0 8.0 0.00 0.00 0.00 58 1015.2
20260510150003 23 38 0.0 4.8 0.00 0.00 0.00 58 1015.3
20260510145424 23 43 0.0 6.4 0.00 0.00 0.00 61 1015.2
20260510144503 22 63 1.6 11.3 0.00 0.00 0.00 63 1015.3
20260510143603 22 59 1.6 11.3 0.00 0.00 0.00 64 1015.2
20260510142703 22 31 0.0 4.8 0.00 0.00 0.00 68 1015.2
20260510141824 22 41 1.6 6.4 0.00 0.00 0.00 71 1015.2
20260510140903 21 45 3.2 8.0 0.00 0.00 0.00 73 1015.2
20260510140003 21 45 1.6 8.0 0.00 0.00 0.00 74 1015.3
20260510135403 20 9 0.0 4.8 0.00 0.00 0.00 78 1015.2
20260510134503 20 72 0.0 3.2 0.00 0.00 0.00 79 1015.3
20260510133603 20 47 0.0 4.8 0.00 0.00 0.00 81 1015.2
20260510132703 20 41 1.6 6.4 0.00 0.00 0.00 83 1015.2
20260510131803 19 230 0.0 3.2 0.00 0.00 0.00 87 1015.1
20260510130924 18 251 0.0 6.4 0.00 0.00 0.00 87 1015.0
20260510130003 18 239 0.0 1.6 0.00 0.00 0.00 89 1014.9
20260510125403 18 266 0.0 1.6 0.00 0.00 0.00 89 1014.7
20260510124503 18 15 0.0 4.8 0.00 0.00 0.00 91 1014.7
20260510123603 17 266 0.0 3.2 0.00 0.00 0.00 92 1014.8
20260510122704 17 286 0.0 3.2 0.00 0.00 0.00 92 1014.7
20260510121803 17 248 0.0 1.6 0.00 0.00 0.00 92 1014.5
20260510120903 17 256 0.0 6.4 0.00 0.00 0.00 92 1014.5
20260510120003 17 262 0.0 3.2 0.00 0.00 0.00 93 1014.4
20260510115403 17 255 0.0 4.8 0.00 0.00 0.00 93 1014.3
20260510114503 17 254 0.0 1.6 0.00 0.00 0.00 94 1014.4
20260510113603 16 251 0.0 1.6 0.00 0.00 0.00 95 1014.2
20260510112703 16 246 0.0 1.6 0.00 0.00 0.00 95 1013.9
20260510111803 16 0 0.0 0.0 0.00 0.00 0.00 95 1013.7
20260510110924 16 0 0.0 0.0 0.00 0.00 0.00 95 1013.6
20260510110003 16 0 0.0 0.0 0.00 0.00 0.00 95 1013.6
20260510105403 16 0 0.0 0.0 0.00 0.00 0.00 95 1013.5
20260510104503 16 0 0.0 0.0 0.00 0.00 0.00 95 1013.3
20260510103603 16 0 0.0 0.0 0.00 0.00 0.00 95 1013.2
20260510102703 16 0 0.0 0.0 0.00 0.00 0.00 94 1013.2
20260510101803 16 0 0.0 0.0 0.00 0.00 0.00 95 1013.0
20260510100924 16 0 0.0 0.0 0.00 0.00 0.00 94 1012.8
20260510100003 16 0 0.0 0.0 0.00 0.00 0.00 94 1012.7
20260510095424 16 0 0.0 0.0 0.00 0.00 0.00 94 1012.7
20260510094524 16 0 0.0 0.0 0.00 0.00 0.00 94 1012.7
20260510093624 16 0 0.0 0.0 0.00 0.00 0.00 94 1012.6
20260510092703 16 0 0.0 0.0 0.00 0.00 0.00 94 1012.3
20260510091824 16 0 0.0 0.0 0.00 0.00 0.00 94 1012.3
20260510090903 16 0 0.0 0.0 0.00 0.00 0.00 93 1012.1
20260510090003 16 0 0.0 0.0 0.00 0.00 0.00 93 1012.0
20260510085424 16 0 0.0 0.0 0.00 0.00 0.00 93 1011.9
20260510084503 16 0 0.0 0.0 0.00 0.00 0.00 93 1011.9
20260510083603 16 0 0.0 0.0 0.00 0.00 0.00 93 1011.9
20260510082703 16 263 0.0 1.6 0.00 0.00 0.00 93 1012.0
20260510081803 16 0 0.0 0.0 0.00 0.00 0.00 93 1011.8
20260510080903 16 0 0.0 0.0 0.00 0.00 0.00 93 1011.8
20260510080003 16 263 0.0 1.6 0.00 0.00 0.00 93 1011.8
20260510075403 16 0 0.0 0.0 0.00 0.00 0.00 93 1011.8
20260510074503 16 0 0.0 0.0 0.00 0.00 0.00 93 1011.8
20260510073624 16 0 0.0 0.0 0.00 0.00 0.00 93 1011.7
20260510072703 16 0 0.0 0.0 0.00 0.00 0.00 93 1011.7
20260510071824 16 0 0.0 0.0 0.00 0.00 0.00 92 1011.5
20260510070903 16 265 0.0 1.6 0.00 0.00 0.00 92 1011.5
20260510070003 16 0 0.0 0.0 0.00 0.00 0.00 92 1011.5
20260510065403 16 0 0.0 0.0 0.00 0.00 0.00 92 1011.7
20260510064524 16 271 0.0 1.6 0.00 0.00 0.00 92 1011.6
20260510063624 16 0 0.0 0.0 0.00 0.00 0.00 92 1011.7
20260510062703 17 0 0.0 0.0 0.00 0.00 0.00 91 1011.6
20260510061803 17 0 0.0 0.0 0.00 0.00 0.00 92 1011.6
20260510060924 17 0 0.0 0.0 0.00 0.00 0.00 91 1011.6
20260510060024 17 0 0.0 0.0 0.00 0.00 0.00 92 1011.7
20260510055403 17 0 0.0 0.0 0.00 0.00 0.00 92 1011.8
20260510054503 17 0 0.0 0.0 0.00 0.00 0.00 92 1011.9
20260510053603 17 0 0.0 0.0 0.00 0.00 0.00 92 1011.9
20260510052703 17 0 0.0 0.0 0.00 0.00 0.00 93 1011.9
20260510051803 17 279 0.0 1.6 0.00 0.00 0.00 93 1012.0
20260510050903 17 0 0.0 0.0 0.00 0.00 0.00 93 1012.2
20260510050024 17 0 0.0 0.0 0.00 0.00 0.00 93 1012.1
20260510045403 17 257 0.0 1.6 0.00 0.00 0.00 93 1012.1
20260510044503 17 0 0.0 0.0 0.00 0.00 0.00 93 1012.3
20260510043603 17 0 0.0 0.0 0.00 0.00 0.00 93 1012.3
20260510042703 17 0 0.0 0.0 0.00 0.00 0.00 93 1012.3
20260510041803 17 0 0.0 0.0 0.00 0.00 0.00 93 1012.2
20260510040924 17 229 0.0 3.2 0.00 0.00 0.00 94 1012.2
20260510040003 17 0 0.0 0.0 0.00 0.00 0.00 93 1012.3
20260510035403 17 0 0.0 0.0 0.00 0.00 0.00 93 1012.2
20260510034503 17 0 0.0 0.0 0.00 0.00 0.00 94 1012.0
20260510033603 17 0 0.0 0.0 0.00 0.00 0.00 93 1012.0
20260510032703 17 0 0.0 0.0 0.00 0.00 0.00 94 1012.0
20260510031803 17 0 0.0 0.0 0.00 0.00 0.00 94 1012.0
20260510030903 17 0 0.0 0.0 0.00 0.00 0.00 93 1011.9
20260510030003 17 0 0.0 0.0 0.00 0.00 0.00 94 1011.9
20260510025424 16 0 0.0 0.0 0.00 0.00 0.00 94 1011.8
20260510024503 16 0 0.0 0.0 0.00 0.00 0.00 94 1012.0
20260510023603 16 0 0.0 0.0 0.00 0.00 0.00 93 1011.7
20260510022703 16 0 0.0 0.0 0.00 0.00 0.00 93 1011.7
20260510021803 17 0 0.0 0.0 0.00 0.00 0.00 93 1011.8
20260510020903 17 0 0.0 0.0 0.00 0.00 0.00 92 1011.7
20260510020003 17 0 0.0 0.0 0.00 0.00 0.00 92 1011.5
20260510015424 17 0 0.0 0.0 0.00 0.00 0.00 92 1011.6
20260510014503 17 0 0.0 0.0 0.00 0.00 0.00 92 1011.6
20260510013624 17 0 0.0 0.0 0.00 0.00 0.00 91 1011.4
20260510012703 17 0 0.0 0.0 0.00 0.00 0.00 91 1011.0
20260510011803 17 0 0.0 0.0 0.00 0.00 0.00 89 1010.9
20260510010903 17 0 0.0 0.0 0.00 0.00 0.00 89 1010.9
20260510010024 17 0 0.0 0.0 0.00 0.00 0.00 89 1010.8
20260510005403 18 0 0.0 0.0 0.00 0.00 0.00 88 1010.8
20260510004503 18 0 0.0 0.0 0.00 0.00 0.00 88 1010.6
20260510003624 18 0 0.0 0.0 0.00 0.00 0.00 87 1010.6
20260510002703 18 0 0.0 0.0 0.00 0.00 0.00 86 1010.5
20260510001803 19 0 0.0 0.0 0.00 0.00 0.00 85 1010.6
20260510000903 20 0 0.0 0.0 0.00 0.00 0.00 83 1010.7
20260510000003 20 0 0.0 0.0 0.00 0.00 0.00 81 1010.6
20260509235424 20 0 0.0 0.0 0.00 0.00 0.00 80 1010.6
20260509234524 21 0 0.0 0.0 0.00 0.00 0.00 79 1010.5
20260509233603 21 0 0.0 0.0 0.00 0.00 0.00 77 1010.4
20260509232703 21 0 0.0 0.0 0.00 0.00 0.00 76 1010.2
20260509231824 22 292 0.0 3.2 0.00 0.00 0.00 75 1009.9
20260509230903 22 214 0.0 1.6 0.00 0.00 0.00 74 1010.1
20260509230003 22 156 0.0 1.6 0.00 0.00 0.00 73 1009.8
20260509225403 22 257 0.0 4.8 0.00 0.00 0.00 72 1009.9
20260509224503 22 0 0.0 0.0 0.00 0.00 0.00 71 1009.6
20260509223603 22 167 0.0 3.2 0.00 0.00 0.00 73 1009.7
20260509222724 22 178 0.0 1.6 0.00 0.00 0.00 72 1009.9
20260509221803 22 161 0.0 1.6 0.00 0.00 0.00 72 1009.8
20260509220924 22 258 0.0 3.2 0.00 0.00 0.00 72 1010.0
20260509220003 22 199 0.0 3.2 0.00 0.00 0.00 71 1010.0
20260509215403 22 165 0.0 3.2 0.00 0.00 0.00 70 1009.9
20260509214503 22 232 0.0 4.8 0.00 0.00 0.00 69 1010.0
20260509213603 23 170 1.6 8.0 0.00 0.00 0.00 69 1009.8
20260509212703 23 177 0.0 4.8 0.00 0.00 0.00 70 1009.8
20260509211824 22 257 0.0 3.2 0.00 0.00 0.00 70 1009.8
20260509210903 22 165 0.0 3.2 0.00 0.00 0.00 70 1009.7
20260509210024 22 211 1.6 6.4 0.00 0.00 0.00 69 1009.8
20260509205403 23 245 1.6 8.0 0.00 0.00 0.00 68 1009.7
20260509204503 22 164 1.6 6.4 0.00 0.00 0.00 70 1009.5
20260509203603 22 243 1.6 8.0 0.00 0.00 0.00 71 1009.8
20260509202724 22 255 0.0 8.0 0.00 0.00 0.00 73 1009.6
20260509201803 21 156 0.0 3.2 0.00 0.00 0.00 73 1009.7
20260509200903 21 177 0.0 3.2 0.00 0.00 0.00 72 1009.9
20260509200003 21 282 0.0 3.2 0.00 0.00 0.00 72 1009.9
20260509195403 22 265 0.0 3.2 0.00 0.00 0.00 71 1010.0
20260509194503 22 269 0.0 3.2 0.00 0.00 0.00 69 1010.1
20260509193603 22 190 0.0 1.6 0.00 0.00 0.00 71 1010.0
20260509192703 21 262 0.0 1.6 0.00 0.00 0.00 72 1010.4
20260509191803 21 281 0.0 1.6 0.00 0.00 0.00 71 1010.6
20260509190903 21 295 0.0 4.8 0.00 0.00 0.00 69 1010.6
20260509190003 21 265 0.0 4.8 0.00 0.00 0.00 69 1010.4
20260509185403 21 156 1.6 6.4 0.00 0.00 0.00 71 1010.4
20260509184524 21 169 1.6 6.4 0.00 0.00 0.00 70 1010.6
20260509183603 21 169 0.0 4.8 0.00 0.00 0.00 69 1010.6
20260509182724 21 179 0.0 4.8 0.00 0.00 0.00 68 1010.5
20260509181803 22 175 1.6 9.7 0.00 0.00 0.00 65 1010.7
20260509180903 22 166 3.2 9.7 0.00 0.00 0.00 64 1010.9
20260509180003 22 185 1.6 9.7 0.00 0.00 0.00 62 1011.1
20260509175403 22 164 3.2 11.3 0.00 0.00 0.00 63 1011.2
20260509174503 22 163 1.6 11.3 0.00 0.00 0.00 62 1011.2
20260509173603 22 172 1.6 11.3 0.00 0.00 0.00 61 1011.3
20260509172703 22 172 1.6 6.4 0.00 0.00 0.00 61 1011.4
20260509171803 22 188 0.0 3.2 0.00 0.00 0.00 60 1011.5
20260509170903 22 168 1.6 4.8 0.00 0.00 0.00 59 1011.5
20260509170024 22 161 1.6 6.4 0.00 0.00 0.00 59 1011.4
20260509165403 22 170 3.2 9.7 0.00 0.00 0.00 59 1011.7
20260509164503 22 221 1.6 9.7 0.00 0.00 0.00 57 1011.8
20260509163603 22 177 1.6 9.7 0.00 0.00 0.00 58 1011.9
20260509162724 21 165 3.2 12.9 0.00 0.00 0.00 61 1011.9